Regional Weather Roundup
Issued by NWS Albany, NY

Home | Current Version | Previous Version | Text Only | Print | Product List | Glossary On
Versions: 1 2 3 4 5 6 7 8 9 10 11 12 13 14 15 16 17 18 19 20 21 22 23 24 25 26 27 28 29 30 31 32 33 34 35 36 37 38 39 40 41 42 43 44 45 46 47 48
000
ASUS41 KALY 270510
RWRALY

NEW YORK STATE HOURLY WEATHER ROUNDUP
NATIONAL WEATHER SERVICE ALBANY NY
1200 AM EST TUE JAN 27 2015

NOTE: "FAIR" INDICATES FEW OR NO CLOUDS BELOW 12,000 FEET WITH NO
SIGNIFICANT WEATHER AND/OR NO OBSTRUCTIONS TO VISIBILITY.

NYZ032-033-038>043-046>054-057>066-NYZ062>081-270600-
EAST


CITY           SKY/WX    TMP DP  RH WIND       PRES   REMARKS
ALBANY         CLOUDY    17   5  59 N10       29.92F WCI   5
GLENS FALLS    CLOUDY    15   2  56 N14       29.94F WCI   0
POUGHKEEPSIE   LGT SNOW  19  13  77 N13G24    29.79F WCI   6
NEWBURGH       LGT SNOW  19  16  86 N18       29.76F WCI   4
MONTGOMERY     CLOUDY    21  16  81 NE20G30   29.75F HAZE    WCI   6
WHITE PLAINS   SNOW      23  19  85 N18G30    29.65F VSB 1/2 WCI   9
ISLIP          HVY SNOW  24  21  88 N20G33    29.60F VSB 1/4 WCI  10
NEW YORK CITY  SNOW      25  21  86 N14       29.69F VSB 1/4 WCI  13
CENTRAL PARK   LGT SNOW  25  19  78 N12G23    29.71F VSB 3/4 WCI  14
$$

NYZ005>009-017-018-044>046-055-056-270600-
CENTRAL


CITY           SKY/WX    TMP DP  RH WIND       PRES   REMARKS
FULTON         CLOUDY    15   5  64 N9        29.94F WCI   3
SYRACUSE       CLOUDY    15  11  83 N9        29.93F WCI   3
ROME           CLOUDY    16   7  67 NW3       29.93F
ELMIRA         LGT SNOW  18  14  84 NE3       29.84F FOG
BINGHAMTON     CLOUDY    16  12  84 N10       29.75F WCI   4
MONTICELLO     CLOUDY    21  16  79 NE9       29.72F WCI  11
$$

NYZ026>034-041>043-270600-
NORTH


CITY           SKY/WX    TMP DP  RH WIND       PRES   REMARKS
WATERTOWN      CLOUDY     9  -2  61 NE12      30.02F WCI  -6
FORT DRUM      NOT AVBL
MASSENA        MOCLDY     4  -5  66 NE12      30.13F WCI -12
SARANAC LAKE   MOCLDY     3  -4  72 NE6       29.88F WCI  -8
PLATTSBURGH    CLOUDY     5  -5  63 N10       30.09F WCI -10
$$

NYZ001>004-010>016-019>021-270600-
WEST


CITY           SKY/WX    TMP DP  RH WIND       PRES   REMARKS
NIAGARA FALLS  FLURRIES  16  11  80 NE12      29.94F WCI   3
BUFFALO        FLURRIES  16  11  80 NE12      29.92S WCI   3
DUNKIRK        LGT SNOW  16  12  84 NE7       29.91S FOG     WCI   6
JAMESTOWN      CLOUDY    14  10  85 NE6       29.79S WCI   5
WELLSVILLE     FLURRIES  12   8  84 N6        29.78S WCI   3
ROCHESTER      LGT SNOW  20  16  84 E9        29.94S FOG     WCI   9
PENN YAN       LGT SNOW  16  12  84 N6        29.88F FOG     WCI   7
$$

             KEY
       WCI = WIND CHILL INDEX
       VSB = VISIBILITY
       HX  = HEAT INDEX
$$


USA.gov is the U.S. government's official web portal to all federal, state and local government web resources and services.